Facebook Twitter

Wetterstation Lechfeld

Messwerte
  Temperatur Wetter Niederschlag Luftdruck Wind
Mo, 15:00 Uhr 26° - - 1004.7 hPa 11 km/h SW
Mo, 14:20 Uhr 26° - - 1008 hPa 11 km/h W
Mo, 14:00 Uhr 24° - - 1005.8 hPa 11 km/h SW
Mo, 13:20 Uhr 24° - - 1009 hPa 14 km/h SW
Mo, 13:00 Uhr 24° - - 1006.1 hPa 14 km/h SW
Mo, 12:20 Uhr 25° - - 1009 hPa 21 km/h SW
Mo, 12:00 Uhr 23° - - 1006.4 hPa 18 km/h SW
Mo, 11:20 Uhr 23° - - 1009 hPa 16 km/h SW
Mo, 11:00 Uhr 21° - - 1006.9 hPa 14 km/h SW
Mo, 10:20 Uhr 20° - - 1009 hPa 14 km/h SW
Mo, 10:00 Uhr 20° - - 1007.5 hPa 18 km/h SW
Mo, 09:20 Uhr 18° - - 1009 hPa 14 km/h SW
Mo, 09:00 Uhr 18° - - 1008 hPa 14 km/h SW
Mo, 08:20 Uhr 18° - - 1009 hPa 13 km/h SW
Mo, 08:00 Uhr 18° - 0 mm 1007.6 hPa 18 km/h SW
Mo, 07:20 Uhr 19° - - 1009 hPa 19 km/h SW
Mo, 07:00 Uhr 19° - - 1007.5 hPa 14 km/h SW
Mo, 06:20 Uhr 19° - - 1009 hPa 16 km/h SW
Mo, 06:00 Uhr 19° - - 1006.9 hPa 18 km/h SW
Mo, 05:20 Uhr 20° - - 1008 hPa 14 km/h SW

Alle Zeitangaben MESZ